SXS7GB EDLW-LTBJ

Flight info

Callsign SXS7GB
Flight time 2h 47m
Altitude 35000
Route GMH8Q/06 GMH Q603 TESGA DCT ESATI DCT DETEV DCT DINKU M867 XERUM DCT BAVAX DCT RADIZ DCT GORPA DCT DEVUL DCT REMSO DCT MEDUX UM867 KOGAT DCT DISOR UL608 FSK UN128 RIKSO
Aircraft B738/M-SDGIJ1LRWY/SB1

Departure

Time 2026-05-06 16:29
Airport Dortmund Airport (EDLW)

Arrival

Time 2026-05-06 19:16
Airport Adnan Menderes International Airport (LTBJ)
Time Latitude Longitude Altitude Speed Heading
2026-05-06 15:36 51.51475 7.61121 427 ft 0 kts 143°
2026-05-06 16:18 51.51480 7.61115 426 ft 2 kts 143°
2026-05-06 16:18 51.51492 7.61100 426 ft 2 kts 143°
2026-05-06 16:19 51.51500 7.61091 426 ft 2 kts 140°
2026-05-06 16:19 51.51508 7.61071 426 ft 2 kts 100°
2026-05-06 16:19 51.51507 7.61047 426 ft 2 kts 69°
2026-05-06 16:19 51.51504 7.61036 426 ft 1 kts 51°
2026-05-06 16:20 51.51501 7.61030 426 ft 0 kts 56°
2026-05-06 16:21 51.51508 7.61047 426 ft 4 kts 52°
2026-05-06 16:21 51.51538 7.61060 425 ft 4 kts 346°
2026-05-06 16:22 51.51567 7.61036 425 ft 4 kts 309°
2026-05-06 16:22 51.51569 7.60998 425 ft 2 kts 252°
2026-05-06 16:22 51.51556 7.60957 425 ft 5 kts 242°
2026-05-06 16:22 51.51535 7.60894 426 ft 6 kts 241°
2026-05-06 16:23 51.51518 7.60847 427 ft 3 kts 241°
2026-05-06 16:23 51.51506 7.60814 428 ft 4 kts 241°
2026-05-06 16:23 51.51483 7.60748 430 ft 8 kts 241°
2026-05-06 16:23 51.51476 7.60728 430 ft 0 kts 241°
2026-05-06 16:24 51.51468 7.60704 431 ft 6 kts 241°
2026-05-06 16:24 51.51444 7.60636 432 ft 6 kts 241°
2026-05-06 16:24 51.51427 7.60589 433 ft 3 kts 241°
2026-05-06 16:24 51.51427 7.60587 433 ft 0 kts 241°
2026-05-06 16:25 51.51422 7.60573 433 ft 7 kts 241°
2026-05-06 16:25 51.51378 7.60449 437 ft 13 kts 241°
2026-05-06 16:26 51.51363 7.60329 439 ft 10 kts 291°
2026-05-06 16:26 51.51414 7.60260 438 ft 10 kts 329°
2026-05-06 16:26 51.51463 7.60216 438 ft 4 kts 350°
2026-05-06 16:26 51.51485 7.60240 437 ft 0 kts 58°
2026-05-06 16:28 51.51570 7.60474 431 ft 62 kts 61°
2026-05-06 16:29 51.51906 7.61430 414 ft 131 kts 61°
2026-05-06 16:29 51.52435 7.62949 606 ft 167 kts 60°
2026-05-06 16:29 51.52955 7.64573 1373 ft 168 kts 62°
2026-05-06 16:29 51.53461 7.66340 1917 ft 183 kts 63°
2026-05-06 16:30 51.54015 7.68158 2556 ft 184 kts 55°
2026-05-06 16:30 51.54520 7.69296 2850 ft 193 kts 51°
2026-05-06 16:30 51.55562 7.71760 3452 ft 211 kts 57°
2026-05-06 16:30 51.56279 7.73932 3874 ft 230 kts 69°
2026-05-06 16:31 51.56347 7.76542 4398 ft 248 kts 103°
2026-05-06 16:31 51.55437 7.78933 5077 ft 261 kts 136°
2026-05-06 16:31 51.53847 7.80407 5669 ft 274 kts 163°
2026-05-06 16:31 51.51937 7.80583 6278 ft 281 kts 195°
2026-05-06 16:32 51.50162 7.79320 6996 ft 282 kts 216°
2026-05-06 16:32 51.48527 7.77603 7764 ft 284 kts 211°
2026-05-06 16:32 51.46735 7.76250 8563 ft 286 kts 204°
2026-05-06 16:32 51.44853 7.75198 9253 ft 292 kts 195°
2026-05-06 16:33 51.42816 7.74986 9933 ft 298 kts 173°
2026-05-06 16:33 51.40781 7.75779 10489 ft 308 kts 163°
2026-05-06 16:33 51.38708 7.76924 10874 ft 323 kts 162°
2026-05-06 16:34 51.34296 7.79472 11615 ft 353 kts 161°
2026-05-06 16:34 51.31957 7.80811 12141 ft 362 kts 161°
2026-05-06 16:34 51.29576 7.82165 12758 ft 367 kts 162°
2026-05-06 16:34 51.27177 7.83518 13508 ft 368 kts 162°
2026-05-06 16:35 51.24758 7.84873 14163 ft 371 kts 163°
2026-05-06 16:35 51.22316 7.86237 14847 ft 374 kts 162°
2026-05-06 16:35 51.19851 7.87627 15462 ft 379 kts 161°
2026-05-06 16:35 51.17405 7.89208 16119 ft 382 kts 157°
2026-05-06 16:36 51.15036 7.91147 16739 ft 386 kts 152°
2026-05-06 16:36 51.12732 7.93346 17360 ft 387 kts 150°
2026-05-06 16:36 51.10452 7.95678 17872 ft 391 kts 149°
2026-05-06 16:36 51.08174 7.98066 18449 ft 393 kts 149°
2026-05-06 16:37 51.05891 8.00457 19026 ft 396 kts 149°
2026-05-06 16:37 51.03584 8.02849 19645 ft 397 kts 149°
2026-05-06 16:37 51.01258 8.05234 20248 ft 399 kts 150°
2026-05-06 16:37 50.98920 8.07612 20762 ft 402 kts 150°
2026-05-06 16:38 50.96566 8.09993 21320 ft 404 kts 150°
2026-05-06 16:38 50.94194 8.12385 21849 ft 406 kts 150°
2026-05-06 16:38 50.91807 8.14789 22372 ft 409 kts 150°
2026-05-06 16:38 50.89406 8.17204 22876 ft 411 kts 150°
2026-05-06 16:39 50.86981 8.19640 23339 ft 415 kts 149°
2026-05-06 16:39 50.84641 8.21990 23825 ft 417 kts 150°
2026-05-06 16:39 50.82194 8.24443 24328 ft 419 kts 150°
2026-05-06 16:39 50.79738 8.26903 24801 ft 421 kts 149°
2026-05-06 16:40 50.77547 8.29094 25235 ft 423 kts 149°
2026-05-06 16:40 50.75071 8.31567 25639 ft 426 kts 149°
2026-05-06 16:40 50.72567 8.34065 26156 ft 426 kts 149°
2026-05-06 16:40 50.70051 8.36572 26581 ft 429 kts 149°
2026-05-06 16:41 50.67527 8.39084 27042 ft 430 kts 149°
2026-05-06 16:41 50.64984 8.41612 27456 ft 432 kts 150°
2026-05-06 16:41 50.62441 8.44136 27886 ft 434 kts 150°
2026-05-06 16:41 50.59889 8.46665 28274 ft 436 kts 150°
2026-05-06 16:42 50.57315 8.49213 28663 ft 438 kts 150°
2026-05-06 16:42 50.54723 8.51776 29066 ft 440 kts 150°
2026-05-06 16:42 50.52138 8.54328 29476 ft 441 kts 150°
2026-05-06 16:42 50.49541 8.56889 29880 ft 442 kts 150°
2026-05-06 16:43 50.46957 8.59472 30395 ft 440 kts 149°
2026-05-06 16:43 50.44493 8.62238 31052 ft 436 kts 144°
2026-05-06 16:43 50.42254 8.65154 31404 ft 437 kts 142°
2026-05-06 16:43 50.39919 8.68482 31695 ft 439 kts 141°
2026-05-06 16:44 50.37787 8.71669 32006 ft 439 kts 140°
2026-05-06 16:44 50.35601 8.75003 32309 ft 439 kts 139°
2026-05-06 16:44 50.33580 8.78102 32617 ft 438 kts 139°
2026-05-06 16:44 50.31406 8.81430 32827 ft 439 kts 140°
2026-05-06 16:45 50.29218 8.84763 33095 ft 437 kts 140°
2026-05-06 16:45 50.27271 8.87715 33354 ft 436 kts 140°
2026-05-06 16:45 50.25091 8.91003 33561 ft 436 kts 140°
2026-05-06 16:45 50.22908 8.94281 33783 ft 436 kts 140°
2026-05-06 16:46 50.20720 8.97556 33970 ft 437 kts 140°
2026-05-06 16:46 50.18523 9.00835 34172 ft 437 kts 140°
2026-05-06 16:46 50.16327 9.04107 34401 ft 436 kts 140°
2026-05-06 16:46 50.14134 9.07368 34625 ft 436 kts 141°
2026-05-06 16:47 50.11940 9.10625 34750 ft 437 kts 141°
2026-05-06 16:47 50.07522 9.17166 34764 ft 437 kts 141°
2026-05-06 16:48 50.03123 9.23671 34760 ft 435 kts 141°
2026-05-06 16:48 49.98712 9.30176 34759 ft 437 kts 141°
2026-05-06 16:49 49.94301 9.36668 34757 ft 436 kts 141°
2026-05-06 16:49 49.89954 9.43050 34766 ft 436 kts 141°
2026-05-06 16:50 49.85507 9.49562 34768 ft 435 kts 141°
2026-05-06 16:50 49.81263 9.55761 34771 ft 434 kts 141°
2026-05-06 16:51 49.77222 9.61639 34765 ft 434 kts 141°
2026-05-06 16:51 49.72819 9.68018 34771 ft 433 kts 142°
2026-05-06 16:52 49.68428 9.74370 34771 ft 433 kts 142°
2026-05-06 16:52 49.64332 9.80279 34770 ft 431 kts 142°
2026-05-06 16:53 49.60173 9.86262 34785 ft 433 kts 142°
2026-05-06 16:53 49.55770 9.92580 34775 ft 434 kts 143°
2026-05-06 16:54 49.51374 9.98879 34740 ft 433 kts 143°
2026-05-06 16:54 49.46954 10.05193 34784 ft 435 kts 142°
2026-05-06 16:55 49.42530 10.11497 34792 ft 434 kts 143°
2026-05-06 16:55 49.38114 10.17776 34792 ft 435 kts 143°
2026-05-06 16:56 49.33668 10.24077 34794 ft 435 kts 143°
2026-05-06 16:56 49.29238 10.30338 34803 ft 434 kts 143°
2026-05-06 16:57 49.24781 10.36532 34797 ft 431 kts 145°
2026-05-06 16:57 49.19973 10.41863 34800 ft 425 kts 153°
2026-05-06 16:58 49.14944 10.46470 34794 ft 421 kts 155°
2026-05-06 16:58 49.09850 10.50975 34799 ft 422 kts 155°
2026-05-06 16:59 49.04777 10.55489 34788 ft 422 kts 155°
2026-05-06 16:59 48.99716 10.60027 34785 ft 421 kts 155°
2026-05-06 17:00 48.94648 10.64584 34793 ft 425 kts 155°
2026-05-06 17:00 48.89737 10.69007 34786 ft 423 kts 155°
2026-05-06 17:01 48.84850 10.73422 34795 ft 427 kts 154°
2026-05-06 17:01 48.80153 10.78711 34797 ft 434 kts 144°
2026-05-06 17:02 48.75970 10.85071 34797 ft 436 kts 139°
2026-05-06 17:02 48.71902 10.91921 34805 ft 438 kts 138°
2026-05-06 17:03 48.68296 10.98076 34797 ft 438 kts 138°
2026-05-06 17:03 48.64307 11.04826 34791 ft 438 kts 139°
2026-05-06 17:04 48.60242 11.11641 34785 ft 436 kts 139°
2026-05-06 17:04 48.56166 11.18421 34791 ft 438 kts 139°
2026-05-06 17:05 48.52074 11.25202 34789 ft 435 kts 139°
2026-05-06 17:05 48.47980 11.31964 34799 ft 438 kts 139°
2026-05-06 17:06 48.43875 11.38727 34799 ft 437 kts 139°
2026-05-06 17:06 48.39788 11.45448 34788 ft 436 kts 139°
2026-05-06 17:07 48.35677 11.52178 34788 ft 439 kts 139°
2026-05-06 17:07 48.31542 11.58932 34795 ft 440 kts 139°
2026-05-06 17:08 48.27415 11.65660 34786 ft 441 kts 140°
2026-05-06 17:08 48.23242 11.72108 34789 ft 437 kts 144°
2026-05-06 17:09 48.19146 11.77720 34787 ft 436 kts 145°
2026-05-06 17:09 48.14878 11.83422 34791 ft 434 kts 145°
2026-05-06 17:10 48.10364 11.89479 34793 ft 438 kts 145°
2026-05-06 17:10 48.05823 11.95617 34791 ft 440 kts 145°
2026-05-06 17:11 48.01324 12.01726 34786 ft 440 kts 145°
2026-05-06 17:11 47.96780 12.07890 34791 ft 444 kts 145°
2026-05-06 17:12 47.92226 12.14062 34785 ft 443 kts 145°
2026-05-06 17:12 47.87838 12.20001 34809 ft 443 kts 145°
2026-05-06 17:13 47.83492 12.25850 34800 ft 452 kts 145°
2026-05-06 17:13 47.78829 12.32117 34813 ft 455 kts 145°
2026-05-06 17:14 47.74959 12.37325 34831 ft 454 kts 144°
2026-05-06 17:14 47.70254 12.43633 34823 ft 456 kts 144°
2026-05-06 17:15 47.65589 12.49879 34838 ft 454 kts 144°
2026-05-06 17:15 47.60942 12.56255 34848 ft 458 kts 142°
2026-05-06 17:16 47.56535 12.63138 34841 ft 461 kts 139°
2026-05-06 17:16 47.52236 12.70160 34870 ft 460 kts 140°
2026-05-06 17:17 47.48106 12.76870 34857 ft 460 kts 140°
2026-05-06 17:17 47.43764 12.83834 34868 ft 461 kts 140°
2026-05-06 17:18 47.39419 12.90745 34872 ft 459 kts 140°
2026-05-06 17:18 47.35034 12.97671 34872 ft 460 kts 140°
2026-05-06 17:19 47.30662 13.04559 34888 ft 461 kts 140°
2026-05-06 17:19 47.26270 13.11455 34888 ft 462 kts 140°
2026-05-06 17:20 47.21880 13.18328 34874 ft 461 kts 140°
2026-05-06 17:20 47.17545 13.25100 34868 ft 461 kts 140°
2026-05-06 17:21 47.13141 13.31958 34868 ft 461 kts 140°
2026-05-06 17:21 47.08763 13.38757 34878 ft 463 kts 140°
2026-05-06 17:22 47.04989 13.44607 34879 ft 463 kts 139°
2026-05-06 17:22 47.00453 13.51626 34876 ft 462 kts 139°
2026-05-06 17:23 46.96023 13.58456 34878 ft 461 kts 139°
2026-05-06 17:23 46.91737 13.65051 34869 ft 463 kts 140°
2026-05-06 17:24 46.87317 13.71834 34887 ft 460 kts 140°
2026-05-06 17:24 46.83287 13.78001 34901 ft 463 kts 140°
2026-05-06 17:25 46.79332 13.84039 34894 ft 462 kts 140°
2026-05-06 17:25 46.74860 13.90851 34896 ft 463 kts 139°
2026-05-06 17:26 46.70542 13.97414 34886 ft 464 kts 139°
2026-05-06 17:26 46.66079 14.04180 34892 ft 465 kts 139°
2026-05-06 17:27 46.61609 14.10940 34886 ft 463 kts 139°
2026-05-06 17:27 46.57155 14.17661 34890 ft 462 kts 139°
2026-05-06 17:28 46.53070 14.23804 34901 ft 464 kts 139°
2026-05-06 17:28 46.48589 14.30529 34906 ft 462 kts 139°
2026-05-06 17:29 46.44112 14.37233 34900 ft 464 kts 139°
2026-05-06 17:29 46.39636 14.43919 34899 ft 462 kts 139°
2026-05-06 17:30 46.35135 14.50621 34902 ft 463 kts 139°
2026-05-06 17:30 46.30925 14.56874 34900 ft 464 kts 139°
2026-05-06 17:31 46.26419 14.63553 34909 ft 464 kts 139°
2026-05-06 17:31 46.22156 14.69856 34908 ft 464 kts 139°
2026-05-06 17:32 46.17572 14.76619 34912 ft 464 kts 139°
2026-05-06 17:32 46.13196 14.83057 34892 ft 464 kts 139°
2026-05-06 17:33 46.08712 14.89640 34902 ft 465 kts 139°
2026-05-06 17:33 46.04190 14.96259 34892 ft 464 kts 139°
2026-05-06 17:34 45.99675 15.02852 34903 ft 464 kts 139°
2026-05-06 17:34 45.95139 15.09461 34902 ft 465 kts 139°
2026-05-06 17:35 45.90594 15.16072 34906 ft 463 kts 139°
2026-05-06 17:35 45.86592 15.21875 34902 ft 465 kts 139°
2026-05-06 17:36 45.79824 15.31657 34907 ft 466 kts 139°
2026-05-06 17:36 45.75341 15.38381 34905 ft 469 kts 135°
2026-05-06 17:37 45.71124 15.45532 34903 ft 471 kts 133°
2026-05-06 17:37 45.66998 15.52777 34901 ft 470 kts 133°
2026-05-06 17:38 45.62867 15.59990 34894 ft 471 kts 134°
2026-05-06 17:38 45.58691 15.67189 34898 ft 472 kts 135°
2026-05-06 17:39 45.54495 15.74367 34887 ft 471 kts 135°
2026-05-06 17:39 45.50595 15.81005 34891 ft 472 kts 135°
2026-05-06 17:40 45.46472 15.87996 34891 ft 473 kts 135°
2026-05-06 17:40 45.42232 15.95165 34888 ft 476 kts 136°
2026-05-06 17:41 45.37978 16.02340 34887 ft 475 kts 136°
2026-05-06 17:41 45.33725 16.09500 34901 ft 476 kts 136°
2026-05-06 17:42 45.29455 16.16667 34904 ft 476 kts 135°
2026-05-06 17:42 45.25201 16.23790 34904 ft 473 kts 136°
2026-05-06 17:43 45.20914 16.30945 34909 ft 477 kts 135°
2026-05-06 17:43 45.16601 16.38126 34907 ft 477 kts 135°
2026-05-06 17:44 45.12287 16.45288 34907 ft 478 kts 136°
2026-05-06 17:44 45.07902 16.52346 34914 ft 477 kts 137°
2026-05-06 17:45 45.03460 16.59328 34917 ft 477 kts 137°
2026-05-06 17:45 44.99098 16.66169 34916 ft 477 kts 137°
2026-05-06 17:46 44.94657 16.73133 34919 ft 476 kts 137°
2026-05-06 17:46 44.90389 16.79827 34925 ft 478 kts 137°
2026-05-06 17:47 44.86234 16.86330 34928 ft 479 kts 137°
2026-05-06 17:47 44.82188 16.92656 34942 ft 477 kts 137°
2026-05-06 17:48 44.78205 16.98871 34935 ft 479 kts 137°
2026-05-06 17:48 44.73638 17.05980 34942 ft 478 kts 137°
2026-05-06 17:49 44.69178 17.12906 34941 ft 481 kts 137°
2026-05-06 17:49 44.64690 17.19857 34961 ft 483 kts 137°
2026-05-06 17:50 44.60192 17.26814 34974 ft 481 kts 137°
2026-05-06 17:50 44.55667 17.33787 34977 ft 482 kts 137°
2026-05-06 17:51 44.51133 17.40759 34980 ft 484 kts 137°
2026-05-06 17:51 44.46585 17.47734 34978 ft 484 kts 137°
2026-05-06 17:52 44.42037 17.54689 34981 ft 484 kts 137°
2026-05-06 17:52 44.37468 17.61658 34982 ft 485 kts 137°
2026-05-06 17:53 44.32978 17.68491 34984 ft 486 kts 138°
2026-05-06 17:53 44.28465 17.75340 34981 ft 488 kts 138°
2026-05-06 17:54 44.23911 17.82234 34978 ft 489 kts 137°
2026-05-06 17:54 44.19350 17.89130 34988 ft 488 kts 137°
2026-05-06 17:55 44.14743 17.96074 34982 ft 491 kts 138°
2026-05-06 17:55 44.10132 18.03007 34983 ft 489 kts 137°
2026-05-06 17:56 44.05531 18.09908 34986 ft 488 kts 137°
2026-05-06 17:56 44.00895 18.16839 34992 ft 493 kts 137°
2026-05-06 17:57 43.96223 18.23806 34998 ft 492 kts 137°
2026-05-06 17:57 43.91559 18.30751 35014 ft 493 kts 137°
2026-05-06 17:58 43.86883 18.37694 35020 ft 494 kts 137°
2026-05-06 17:58 43.82212 18.44618 35032 ft 495 kts 137°
2026-05-06 17:59 43.77519 18.51552 35034 ft 495 kts 137°
2026-05-06 17:59 43.72802 18.58506 35022 ft 495 kts 137°
2026-05-06 18:00 43.68081 18.65445 35020 ft 496 kts 137°
2026-05-06 18:00 43.63484 18.72187 35013 ft 494 kts 137°
2026-05-06 18:01 43.59227 18.78418 35024 ft 494 kts 137°
2026-05-06 18:01 43.54630 18.85132 35031 ft 495 kts 137°
2026-05-06 18:02 43.49904 18.92015 35042 ft 495 kts 137°
2026-05-06 18:02 43.45184 18.98895 35062 ft 492 kts 136°
2026-05-06 18:03 43.40497 19.05853 35060 ft 496 kts 136°
2026-05-06 18:03 43.35817 19.12841 35079 ft 498 kts 136°
2026-05-06 18:04 43.31129 19.19825 35070 ft 494 kts 136°
2026-05-06 18:04 43.26453 19.26759 35027 ft 498 kts 136°
2026-05-06 18:05 43.21750 19.33707 35079 ft 496 kts 136°
2026-05-06 18:05 43.17034 19.40650 35086 ft 499 kts 136°
2026-05-06 18:06 43.12304 19.47596 35088 ft 499 kts 135°
2026-05-06 18:06 43.07557 19.54547 35079 ft 500 kts 135°
2026-05-06 18:07 43.02800 19.61496 35082 ft 502 kts 135°
2026-05-06 18:07 42.98014 19.68473 35086 ft 501 kts 136°
2026-05-06 18:08 42.93449 19.75116 35083 ft 503 kts 136°
2026-05-06 18:08 42.88803 19.81862 35084 ft 501 kts 136°
2026-05-06 18:09 42.84031 19.88770 35088 ft 501 kts 135°
2026-05-06 18:09 42.79710 19.95013 35106 ft 502 kts 135°
2026-05-06 18:10 42.74858 20.02005 35120 ft 503 kts 135°
2026-05-06 18:10 42.70224 20.09150 35128 ft 505 kts 131°
2026-05-06 18:11 42.65836 20.16515 35079 ft 500 kts 130°
2026-05-06 18:11 42.61465 20.23916 35105 ft 501 kts 130°
2026-05-06 18:12 42.57060 20.31265 35078 ft 499 kts 131°
2026-05-06 18:12 42.52645 20.38543 35073 ft 501 kts 130°
2026-05-06 18:13 42.48203 20.45810 35057 ft 498 kts 131°
2026-05-06 18:13 42.43769 20.53039 35057 ft 498 kts 131°
2026-05-06 18:14 42.39336 20.60244 35063 ft 497 kts 131°
2026-05-06 18:14 42.34916 20.67413 35056 ft 496 kts 131°
2026-05-06 18:15 42.30592 20.74410 35045 ft 493 kts 131°
2026-05-06 18:15 42.26186 20.81523 35047 ft 495 kts 131°
2026-05-06 18:16 42.21769 20.88631 35059 ft 495 kts 131°
2026-05-06 18:16 42.17357 20.95719 35066 ft 494 kts 131°
2026-05-06 18:17 42.12946 21.02795 35059 ft 493 kts 131°
2026-05-06 18:17 42.08745 21.10146 35046 ft 496 kts 126°
2026-05-06 18:18 42.04887 21.17868 35038 ft 496 kts 123°
2026-05-06 18:18 42.01143 21.25628 35033 ft 495 kts 123°
2026-05-06 18:19 41.97377 21.33358 35027 ft 495 kts 124°
2026-05-06 18:19 41.93579 21.41046 35028 ft 494 kts 124°
2026-05-06 18:20 41.89875 21.48471 35040 ft 492 kts 124°
2026-05-06 18:20 41.86063 21.56070 35040 ft 494 kts 124°
2026-05-06 18:21 41.82172 21.63803 35029 ft 495 kts 124°
2026-05-06 18:21 41.78584 21.70918 35019 ft 494 kts 124°
2026-05-06 18:22 41.75038 21.77934 35011 ft 495 kts 124°
2026-05-06 18:22 41.71172 21.85563 35018 ft 495 kts 124°
2026-05-06 18:23 41.67304 21.93176 35017 ft 494 kts 124°
2026-05-06 18:23 41.63439 22.00765 35028 ft 494 kts 124°
2026-05-06 18:24 41.59571 22.08345 35027 ft 493 kts 124°
2026-05-06 18:24 41.55701 22.15910 35038 ft 494 kts 124°
2026-05-06 18:25 41.51822 22.23473 35045 ft 493 kts 124°
2026-05-06 18:25 41.47946 22.31011 35052 ft 495 kts 124°
2026-05-06 18:26 41.44050 22.38568 35059 ft 495 kts 124°
2026-05-06 18:26 41.40131 22.46150 35064 ft 496 kts 124°
2026-05-06 18:27 41.36221 22.53697 35052 ft 495 kts 124°
2026-05-06 18:27 41.32282 22.61281 35045 ft 496 kts 124°
2026-05-06 18:28 41.28432 22.68676 35040 ft 496 kts 125°
2026-05-06 18:28 41.24655 22.75900 35037 ft 497 kts 126°
2026-05-06 18:29 41.20391 22.83100 35037 ft 497 kts 130°
2026-05-06 18:29 41.15887 22.90055 35035 ft 496 kts 131°
2026-05-06 18:30 41.11328 22.97012 35041 ft 500 kts 131°
2026-05-06 18:30 41.07054 23.04258 35045 ft 498 kts 125°
2026-05-06 18:31 41.03165 23.11841 35052 ft 499 kts 123°
2026-05-06 18:31 40.99359 23.19525 35056 ft 498 kts 122°
2026-05-06 18:32 40.95522 23.27209 35062 ft 498 kts 123°
2026-05-06 18:32 40.91653 23.34853 35051 ft 498 kts 123°
2026-05-06 18:33 40.87779 23.42435 35041 ft 497 kts 123°
2026-05-06 18:33 40.84074 23.49651 35042 ft 499 kts 123°
2026-05-06 18:34 40.80191 23.57188 35039 ft 498 kts 123°
2026-05-06 18:34 40.76285 23.64751 35040 ft 498 kts 123°
2026-05-06 18:35 40.72514 23.72035 35042 ft 498 kts 124°
2026-05-06 18:35 40.68615 23.79547 35042 ft 496 kts 124°
2026-05-06 18:36 40.64717 23.87043 35041 ft 496 kts 123°
2026-05-06 18:36 40.60815 23.94527 35040 ft 496 kts 124°
2026-05-06 18:37 40.56909 24.01997 35043 ft 497 kts 123°
2026-05-06 18:37 40.52994 24.09466 35062 ft 498 kts 123°
2026-05-06 18:38 40.49066 24.16942 34977 ft 497 kts 123°
2026-05-06 18:38 40.45132 24.24411 35041 ft 500 kts 124°
2026-05-06 18:39 40.41188 24.31877 35039 ft 498 kts 123°
2026-05-06 18:40 40.35281 24.43028 35041 ft 497 kts 123°
2026-05-06 18:40 40.31335 24.50458 35041 ft 497 kts 123°
2026-05-06 18:41 40.27388 24.57873 35036 ft 496 kts 123°
2026-05-06 18:41 40.23483 24.65190 35043 ft 496 kts 124°
2026-05-06 18:42 40.19548 24.72550 35044 ft 498 kts 124°
2026-05-06 18:42 40.15576 24.79960 35041 ft 498 kts 124°
2026-05-06 18:43 40.11602 24.87354 35046 ft 497 kts 124°
2026-05-06 18:43 40.07635 24.94719 35046 ft 497 kts 124°
2026-05-06 18:44 40.03658 25.02084 35049 ft 498 kts 123°
2026-05-06 18:44 39.99665 25.09460 35045 ft 498 kts 123°
2026-05-06 18:45 39.95672 25.16822 35049 ft 497 kts 123°
2026-05-06 18:45 39.91484 25.24010 35047 ft 498 kts 130°
2026-05-06 18:46 39.86558 25.30386 35049 ft 500 kts 137°
2026-05-06 18:46 39.81485 25.36061 35049 ft 501 kts 139°
2026-05-06 18:47 39.76160 25.41875 35048 ft 500 kts 139°
2026-05-06 18:47 39.70838 25.47739 35049 ft 501 kts 139°
2026-05-06 18:48 39.65561 25.53620 35048 ft 500 kts 138°
2026-05-06 18:48 39.60280 25.59544 35049 ft 500 kts 138°
2026-05-06 18:49 39.55019 25.65454 35048 ft 500 kts 139°
2026-05-06 18:49 39.49745 25.71372 35049 ft 501 kts 139°
2026-05-06 18:50 39.44494 25.77253 35050 ft 500 kts 139°
2026-05-06 18:50 39.39223 25.83144 35050 ft 501 kts 139°
2026-05-06 18:51 39.33958 25.89015 35050 ft 501 kts 139°
2026-05-06 18:51 39.28678 25.94889 35052 ft 501 kts 139°
2026-05-06 18:52 39.23348 26.00696 35053 ft 502 kts 140°
2026-05-06 18:52 39.17973 26.06446 35052 ft 502 kts 140°
2026-05-06 18:53 39.12601 26.12168 35053 ft 502 kts 140°
2026-05-06 18:53 39.07256 26.17860 34930 ft 493 kts 140°
2026-05-06 18:53 39.04637 26.20649 34511 ft 488 kts 139°
2026-05-06 18:54 39.02033 26.23422 33956 ft 485 kts 139°
2026-05-06 18:54 38.99452 26.26171 33568 ft 479 kts 139°
2026-05-06 18:54 38.96898 26.28889 33072 ft 475 kts 139°
2026-05-06 18:54 38.94361 26.31587 32564 ft 472 kts 139°
2026-05-06 18:55 38.91834 26.34272 32054 ft 469 kts 139°
2026-05-06 18:55 38.89326 26.36935 31548 ft 466 kts 139°
2026-05-06 18:55 38.86830 26.39582 31047 ft 463 kts 139°
2026-05-06 18:55 38.84350 26.42209 30547 ft 460 kts 139°
2026-05-06 18:56 38.81909 26.44811 30049 ft 457 kts 139°
2026-05-06 18:56 38.79503 26.47449 29553 ft 454 kts 137°
2026-05-06 18:56 38.77138 26.50095 29062 ft 451 kts 137°
2026-05-06 18:56 38.74800 26.52733 28725 ft 446 kts 137°
2026-05-06 18:57 38.72480 26.55353 28471 ft 447 kts 137°
2026-05-06 18:57 38.70160 26.57969 28149 ft 444 kts 137°
2026-05-06 18:57 38.67848 26.60573 27616 ft 443 kts 137°
2026-05-06 18:57 38.65550 26.63160 27144 ft 440 kts 137°
2026-05-06 18:58 38.63255 26.65743 26683 ft 436 kts 137°
2026-05-06 18:58 38.60978 26.68299 26204 ft 434 kts 137°
2026-05-06 18:58 38.58708 26.70833 25499 ft 437 kts 137°
2026-05-06 18:58 38.56408 26.73393 24693 ft 443 kts 137°
2026-05-06 18:59 38.54078 26.75981 23836 ft 449 kts 137°
2026-05-06 18:59 38.51720 26.78598 22962 ft 455 kts 137°
2026-05-06 18:59 38.49333 26.81244 22336 ft 453 kts 137°
2026-05-06 18:59 38.46966 26.83865 21742 ft 451 kts 137°
2026-05-06 19:00 38.44612 26.86469 21145 ft 445 kts 137°
2026-05-06 19:00 38.42297 26.89029 20264 ft 438 kts 138°
2026-05-06 19:00 38.40025 26.91540 19401 ft 431 kts 138°
2026-05-06 19:00 38.37784 26.94013 18530 ft 424 kts 138°
2026-05-06 19:01 38.35586 26.96441 17887 ft 411 kts 137°
2026-05-06 19:01 38.33455 26.98753 17455 ft 394 kts 139°
2026-05-06 19:01 38.31321 27.00839 17010 ft 380 kts 145°
2026-05-06 19:01 38.29115 27.02555 16643 ft 365 kts 150°
2026-05-06 19:02 38.26907 27.04001 16340 ft 350 kts 154°
2026-05-06 19:02 38.24751 27.05298 16033 ft 337 kts 156°
2026-05-06 19:02 38.22591 27.06344 15728 ft 330 kts 162°
2026-05-06 19:02 38.20383 27.07182 15281 ft 331 kts 165°
2026-05-06 19:03 38.18164 27.07957 14785 ft 328 kts 165°
2026-05-06 19:03 38.15951 27.08711 14342 ft 329 kts 165°
2026-05-06 19:03 38.13736 27.09461 13865 ft 331 kts 165°
2026-05-06 19:03 38.11498 27.10216 13375 ft 333 kts 165°
2026-05-06 19:04 38.09251 27.10971 12847 ft 332 kts 165°
2026-05-06 19:04 38.07028 27.11714 12351 ft 326 kts 165°
2026-05-06 19:04 38.04851 27.12437 11860 ft 319 kts 165°
2026-05-06 19:04 38.02711 27.13145 11368 ft 314 kts 165°
2026-05-06 19:05 38.00611 27.13832 10885 ft 309 kts 165°
2026-05-06 19:05 37.98543 27.14500 10372 ft 305 kts 165°
2026-05-06 19:05 37.96497 27.15154 9856 ft 302 kts 165°
2026-05-06 19:05 37.94474 27.15797 9342 ft 299 kts 165°
2026-05-06 19:06 37.92469 27.16432 8827 ft 296 kts 165°
2026-05-06 19:06 37.90468 27.17065 8344 ft 299 kts 165°
2026-05-06 19:06 37.88478 27.17787 7773 ft 297 kts 155°
2026-05-06 19:06 37.86797 27.19231 7261 ft 289 kts 130°
2026-05-06 19:07 37.85740 27.21337 6745 ft 280 kts 107°
2026-05-06 19:07 37.85407 27.23707 6229 ft 272 kts 87°
2026-05-06 19:07 37.85677 27.26039 5774 ft 267 kts 70°
2026-05-06 19:07 37.86518 27.28077 5502 ft 259 kts 49°
2026-05-06 19:08 37.87842 27.29577 5264 ft 253 kts 31°
2026-05-06 19:08 37.89422 27.30491 5038 ft 247 kts 14°
2026-05-06 19:08 37.91103 27.30713 5000 ft 239 kts 355°
2026-05-06 19:08 37.92740 27.30264 5006 ft 242 kts 340°
2026-05-06 19:09 37.94296 27.29413 5002 ft 243 kts 335°
2026-05-06 19:09 37.95819 27.28474 5001 ft 242 kts 335°
2026-05-06 19:09 37.97341 27.27541 5002 ft 242 kts 335°
2026-05-06 19:09 37.98876 27.26622 5002 ft 242 kts 336°
2026-05-06 19:10 38.00411 27.25715 4889 ft 245 kts 336°
2026-05-06 19:10 38.01956 27.24804 4635 ft 243 kts 336°
2026-05-06 19:10 38.03491 27.23899 4386 ft 241 kts 336°
2026-05-06 19:10 38.04999 27.23008 4158 ft 236 kts 336°
2026-05-06 19:11 38.06513 27.22264 3935 ft 229 kts 344°
2026-05-06 19:11 38.08024 27.21783 3894 ft 214 kts 348°
2026-05-06 19:11 38.09430 27.21398 3896 ft 198 kts 348°
2026-05-06 19:11 38.10736 27.21031 3893 ft 182 kts 347°
2026-05-06 19:12 38.11935 27.20679 3866 ft 174 kts 347°
2026-05-06 19:12 38.13143 27.20333 3464 ft 180 kts 348°
2026-05-06 19:12 38.14385 27.20017 2946 ft 184 kts 349°
2026-05-06 19:12 38.15615 27.19684 2603 ft 177 kts 345°
2026-05-06 19:13 38.16773 27.19259 2308 ft 169 kts 344°
2026-05-06 19:13 38.17872 27.18872 2061 ft 160 kts 345°
2026-05-06 19:13 38.18941 27.18542 1982 ft 156 kts 347°
2026-05-06 19:13 38.20024 27.18230 1906 ft 160 kts 347°
2026-05-06 19:14 38.21116 27.17906 1586 ft 159 kts 346°
2026-05-06 19:14 38.22164 27.17584 1296 ft 150 kts 347°
2026-05-06 19:14 38.23179 27.17272 1175 ft 150 kts 347°
2026-05-06 19:14 38.24229 27.16981 1059 ft 155 kts 346°
2026-05-06 19:15 38.25283 27.16650 853 ft 155 kts 347°
2026-05-06 19:15 38.26336 27.16354 658 ft 154 kts 347°
2026-05-06 19:15 38.27370 27.16043 492 ft 149 kts 347°
2026-05-06 19:15 38.28364 27.15746 399 ft 135 kts 347°
2026-05-06 19:16 38.29050 27.15539 407 ft 68 kts 347°
2026-05-06 19:16 38.29444 27.15420 409 ft 56 kts 347°
2026-05-06 19:16 38.29794 27.15315 413 ft 32 kts 346°
2026-05-06 19:16 38.29926 27.15275 416 ft 18 kts 347°
2026-05-06 19:17 38.29980 27.15182 416 ft 15 kts 261°
2026-05-06 19:17 38.29953 27.15043 414 ft 16 kts 256°
2026-05-06 19:17 38.29899 27.14963 412 ft 13 kts 174°
2026-05-06 19:17 38.29794 27.14994 410 ft 17 kts 166°
2026-05-06 19:18 38.29676 27.15030 408 ft 14 kts 167°
2026-05-06 19:18 38.29641 27.15032 408 ft 4 kts 210°
2026-05-06 19:18 38.29627 27.14990 408 ft 6 kts 255°
2026-05-06 19:18 38.29622 27.14965 407 ft 0 kts 256°
2026-05-06 19:19 38.29622 27.14964 407 ft 0 kts 256°